Tracking 25710 objects as of 5-Jul-2022
HD Live streaming from Space Station
objects crossing your sky now

FENGYUN 1C DEB

Track FENGYUN 1C DEB now!
10-day predictions


NORAD ID: 33748
Int'l Code: 1999-025DJM
Perigee: 794.2 km
Apogee: 853.0 km
Inclination: 98.7 °
Period: 101.2 minutes
Semi major axis: 7194 km
RCS: 0.0021 m2 (small)
Launch date: May 10, 1999
Source: People's Republic of China (PRC)
Launch site: Taiyaun Space Center, China (TSC)

Note: This is SATELLITE DEBRIS
aabbcc
Your satellite tracking list
Your tracking list is empty




NASA's NSSDC Master Catalog

Two Line Element Set (TLE):
1 33748U 99025DJM 22185.90511971  .00001016  00000-0  47012-3 0  9996
2 33748  98.6975 236.5790 0040845 313.1737  46.6030 14.22629058734719
Source of the keplerian elements: AFSPC